Погода в Русской Поляне

Россия / Омская область     53°46′43″N   73°52′42″E
темп.,
°C
ветер,
м/с
пор.,
м/с
влажн.,
%
обл.,
%
осадки,
мм/ч
давл.,
гПа
погр.,
м
23 апреля, пт
пт2300:00+1вюв35570 0.0 104587
03:000юв33590 0.0 104544
06:000юв33616 0.0 104642
09:00+3ююв44438 0.0 1046650
12:00+6ююв33360 0.0 10451437
15:00+7юв33320 0.0 10431578
18:00+8юв44330 0.0 10421477
21:00+5вюв464613 0.0 104293
24 апреля, сб
сб2400:00+3юв335698 0.0 104135
03:00+2юв356369 0.0 103969
06:00+1юв3564100 0.0 103963
09:00+5ююв464949 0.0 1038464
12:00+8ююв5636100 0.0 10361418
15:00+10ю5631100 0.0 10341590
18:00+10ююв5631100 0.0 10331454
21:00+8юв3745100 0.0 1032159
25 апреля, вс
вс2500:00+7юв41049100 0.0 1030268
03:00+5юв51152100 0.0 1029272
06:00+5юв51251100 0.0 1028318
09:00+7юв71247100 0.0 1027535
12:00+11ююв8934100 0.0 10251026
15:00+15ююв8102351 0.0 10232528
18:00+14ю6826100 0.0 10222043
21:00+11юв5103899 0.0 1021182
26 апреля, пн
пн2600:00+9ююв5125597 0.0 1020246
03:00+7ю466023 0.0 102095
06:00+7юз3471100 0.0 102048
09:00+11юз81367100 0.1 1020724
12:00+15зюз7115583 0.4 10191371
15:00+17з91132100 0.3 10182458
18:00+15з7928100 0.3 10192105
21:00+11зсз4936100 0.0 1021180
27 апреля, вт
вт2700:00+9з3343100 0.0 102144
03:00+8зюз3447100 0.0 102254
06:00+7зюз3452100 0.0 102243
09:00+10юз2344100 0.0 1022204
12:00+10юз3549100 0.0 1022179
15:00+9ююв4760100 0.1 1020458
18:00+13ююв61053100 0.1 1016392
21:00+12ююв81758100 0.0 1012331